QPF
0.00 0.00 0.00 0.00 0.00 0.00 0.00 0.00 0.00 0.00 0.00 0.00 0.00 0.00 0.00 0.00 0.00 0.00 0.00 0.00 0.00 0.00 0.00 0.00 0.00 0.00 0.00 0.00 0.00 0.00 0.00 0.00 0.00 0.00 0.01 0.01 0.01 0.01 0.01 0.01 0.02 0.02 0.02
0.00 0.00 0.00 0.00 0.00 0.00 0.00 0.00 0.00 0.00 0.00 0.00 0.00 0.00 0.00 0.00 0.00 0.00 0.00 0.00 0.00 0.00 0.00 0.00 0.00 0.00 0.00 0.00 0.00 0.00 0.00 0.00 0.00 0.00 0.00 0.00 0.00 0.00 0.01 0.01 0.01 0.01 0.02
0.00 0.00 0.00 0.00 0.00 0.00 0.00 0.00 0.00 0.00 0.00 0.00 0.00 0.00 0.00 0.00 0.00 0.00 0.00 0.00 0.00 0.00 0.00 0.00 0.00 0.00 0.00 0.00 0.00 0.00 0.00 0.00 0.00 0.00 0.00 0.00 0.00 0.00 0.00 0.00 0.01 0.01 0.01
0.00 0.00 0.00 0.00 0.00 0.00 0.00 0.00 0.00 0.00 0.00 0.00 0.00 0.00 0.00 0.00 0.00 0.00 0.00 0.00 0.00 0.00 0.00 0.00 0.00 0.00 0.00 0.00 0.00 0.00 0.00 0.00 0.00 0.00 0.00 0.00 0.00 0.00 0.00 0.00 0.00 0.00 0.00
0.01 0.00 0.00 0.00 0.00 0.00 0.00 0.00 0.00 0.00 0.00 0.00 0.00 0.00 0.00 0.00 0.00 0.00 0.00 0.00 0.00 0.00 0.00 0.00 0.00 0.00 0.00 0.00 0.00 0.00 0.00 0.00 0.00 0.00 0.00 0.00 0.00 0.00 0.00 0.01 0.01 0.01 0.01
0.00 0.00 0.00 0.00 0.00 0.00 0.00 0.00 0.00 0.00 0.00 0.00 0.00 0.00 0.00 0.00 0.00 0.00 0.00 0.00 0.00 0.00 0.00 0.00 0.00 0.00 0.00 0.00 0.00 0.00 0.00 0.00 0.00 0.00 0.00 0.00 0.00 0.00 0.01 0.01 0.01 0.01 0.01
0.00 0.00 0.00 0.00 0.00 0.00 0.00 0.00 0.00 0.00 0.00 0.00 0.00 0.00 0.00 0.00 0.00 0.00 0.00 0.00 0.00 0.00 0.00 0.00 0.00 0.00 0.00 0.00 0.00 0.00 0.00 0.00 0.00 0.00 0.00 0.00 0.00 0.01 0.01 0.01 0.01 0.01 0.02
0.01 0.00 0.00 0.00 0.00 0.00 0.00 0.00 0.00 0.00 0.00 0.00 0.00 0.00 0.00 0.00 0.00 0.00 0.00 0.00 0.00 0.00 0.00 0.00 0.00 0.00 0.00 0.00 0.00 0.00 0.00 0.00 0.00 0.00 0.00 0.00 0.01 0.01 0.01 0.02 0.02 0.02 0.02
0.01 0.00 0.00 0.00 0.00 0.00 0.00 0.00 0.00 0.00 0.00 0.00 0.00 0.00 0.00 0.00 0.00 0.00 0.00 0.00 0.00 0.00 0.00 0.00 0.00 0.00 0.00 0.00 0.00 0.00 0.00 0.00 0.00 0.00 0.00 0.00 0.01 0.01 0.01 0.02 0.02 0.02 0.02
0.01 0.01 0.00 0.00 0.00 0.00 0.00 0.00 0.00 0.00 0.00 0.00 0.00 0.00 0.00 0.00 0.00 0.00 0.00 0.00 0.00 0.00 0.00 0.00 0.00 0.00 0.00 0.00 0.00 0.00 0.00 0.00 0.00 0.00 0.00 0.00 0.01 0.01 0.01 0.01 0.01 0.01 0.02
0.00 0.00 0.00 0.00 0.00 0.00 0.00 0.00 0.00 0.00 0.00 0.00 0.00 0.00 0.00 0.00 0.00 0.00 0.00 0.00 0.00 0.00 0.00 0.00 0.00 0.00 0.00 0.00 0.00 0.00 0.00 0.00 0.00 0.00 0.00 0.00 0.00 0.01 0.01 0.01 0.01 0.01 0.01
0.00 0.00 0.00 0.00 0.00 0.00 0.00 0.00 0.00 0.00 0.00 0.00 0.00 0.00 0.00 0.00 0.00 0.00 0.00 0.00 0.00 0.00 0.00 0.00 0.00 0.00 0.00 0.00 0.00 0.00 0.00 0.00 0.00 0.00 0.00 0.00 0.00 0.00 0.01 0.01 0.01 0.01 0.02
0.00 0.00 0.00 0.00 0.00 0.00 0.00 0.00 0.00 0.00 0.00 0.00 0.00 0.00 0.00 0.00 0.00 0.00 0.00 0.00 0.00 0.00 0.00 0.00 0.00 0.00 0.00 0.00 0.00 0.00 0.00 0.00 0.00 0.00 0.00 0.00 0.00 0.00 0.01 0.01 0.01 0.02 0.02
0.00 0.00 0.00 0.00 0.00 0.00 0.00 0.00 0.00 0.00 0.00 0.00 0.00 0.00 0.00 0.00 0.00 0.00 0.00 0.00 0.00 0.00 0.00 0.00 0.00 0.00 0.00 0.00 0.00 0.00 0.00 0.00 0.00 0.00 0.00 0.00 0.00 0.00 0.01 0.01 0.01 0.01 0.02
0.00 0.00 0.00 0.00 0.00 0.01 0.01 0.01 0.00 0.00 0.00 0.00 0.00 0.00 0.00 0.00 0.00 0.00 0.00 0.00 0.00 0.00 0.00 0.00 0.00 0.00 0.00 0.00 0.00 0.00 0.00 0.00 0.00 0.00 0.00 0.00 0.00 0.00 0.01 0.01 0.01 0.02 0.02
0.00 0.00 0.00 0.00 0.00 0.01 0.01 0.01 0.01 0.00 0.00 0.00 0.00 0.00 0.00 0.00 0.00 0.00 0.00 0.00 0.00 0.00 0.00 0.00 0.00 0.00 0.00 0.00 0.00 0.00 0.00 0.00 0.00 0.00 0.00 0.00 0.00 0.01 0.01 0.01 0.01 0.02 0.02
0.00 0.00 0.00 0.00 0.00 0.01 0.01 0.00 0.00 0.00 0.00 0.00 0.00 0.00 0.00 0.00 0.00 0.00 0.00 0.00 0.00 0.00 0.00 0.00 0.00 0.00 0.00 0.00 0.00 0.00 0.00 0.00 0.00 0.00 0.00 0.00 0.00 0.01 0.01 0.01 0.01 0.02 0.02
0.00 0.00 0.00 0.00 0.00 0.00 0.00 0.00 0.00 0.00 0.00 0.00 0.00 0.00 0.00 0.00 0.00 0.00 0.00 0.00 0.00 0.00 0.00 0.00 0.00 0.00 0.00 0.00 0.00 0.00 0.00 0.00 0.00 0.00 0.00 0.00 0.01 0.01 0.01 0.01 0.02 0.02 0.02
0.00 0.00 0.00 0.00 0.00 0.00 0.00 0.00 0.00 0.00 0.00 0.00 0.00 0.00 0.00 0.00 0.00 0.00 0.00 0.00 0.00 0.00 0.00 0.00 0.00 0.00 0.00 0.00 0.00 0.00 0.00 0.00 0.00 0.00 0.00 0.00 0.00 0.00 0.01 0.01 0.01 0.02 0.02
0.00 0.00 0.00 0.00 0.00 0.00 0.00 0.00 0.00 0.00 0.00 0.00 0.00 0.00 0.00 0.00 0.00 0.00 0.00 0.00 0.00 0.00 0.00 0.00 0.00 0.00 0.00 0.00 0.00 0.00 0.00 0.00 0.00 0.00 0.00 0.00 0.00 0.00 0.01 0.01 0.01 0.01 0.01
0.00 0.00 0.00 0.00 0.00 0.00 0.00 0.00 0.00 0.00 0.00 0.00 0.00 0.00 0.00 0.00 0.00 0.00 0.00 0.00 0.00 0.00 0.00 0.00 0.00 0.00 0.00 0.00 0.00 0.00 0.00 0.00 0.00 0.00 0.00 0.00 0.00 0.00 0.00 0.00 0.00 0.00 0.01
0.00 0.00 0.00 0.00 0.00 0.00 0.00 0.00 0.00 0.00 0.00 0.00 0.00 0.00 0.00 0.00 0.00 0.00 0.00 0.00 0.00 0.01 0.01 0.01 0.01 0.00 0.00 0.00 0.00 0.01 0.01 0.02 0.01 0.00 0.00 0.00 0.00 0.00 0.00 0.00 0.00 0.00 0.01
0.00 0.00 0.00 0.00 0.00 0.00 0.00 0.00 0.00 0.00 0.00 0.00 0.00 0.00 0.00 0.00 0.00 0.00 0.00 0.00 0.00 0.00 0.01 0.01 0.01 0.00 0.00 0.01 0.01 0.02 0.02 0.02 0.02 0.01 0.02 0.02 0.00 0.00 0.00 0.00 0.00 0.01 0.02
0.00 0.00 0.00 0.00 0.00 0.00 0.00 0.00 0.01 0.00 0.00 0.00 0.00 0.00 0.00 0.00 0.00 0.00 0.00 0.00 0.00 0.00 0.00 0.00 0.01 0.01 0.01 0.02 0.03 0.03 0.03 0.04 0.03 0.02 0.02 0.02 0.01 0.00 0.00 0.00 0.00 0.01 0.01
0.00 0.00 0.00 0.00 0.00 0.00 0.00 0.01 0.01 0.00 0.00 0.00 0.00 0.00 0.00 0.00 0.00 0.01 0.01 0.01 0.00 0.00 0.00 0.01 0.01 0.02 0.02 0.03 0.03 0.04 0.04 0.05 0.04 0.02 0.01 0.02 0.01 0.01 0.00 0.00 0.00 0.00 0.00
0.00 0.00 0.00 0.00 0.00 0.00 0.00 0.00 0.00 0.00 0.00 0.00 0.00 0.00 0.00 0.00 0.00 0.01 0.01 0.01 0.01 0.01 0.01 0.01 0.01 0.01 0.01 0.01 0.01 0.02 0.03 0.04 0.04 0.03 0.01 0.02 0.02 0.01 0.02 0.00 0.00 0.00 0.00
MSLP
1022.30 1022.35 1022.34 1022.32 1022.30 1022.30 1022.31 1022.34 1022.36 1022.36 1022.33 1022.26 1022.15 1022.02 1021.88 1021.75 1021.64 1021.56 1021.50 1021.46 1021.40 1021.33 1021.24 1021.13 1021.00 1020.86 1020.72 1020.57 1020.43 1020.29 1020.14 1019.98 1019.82 1019.66 1019.49 1019.31 1019.14 1018.95 1018.74 1018.51 1018.25 1017.96 1017.66
1022.06 1022.14 1022.18 1022.20 1022.24 1022.28 1022.35 1022.42 1022.47 1022.50 1022.48 1022.41 1022.30 1022.16 1022.01 1021.87 1021.75 1021.66 1021.59 1021.54 1021.50 1021.45 1021.38 1021.30 1021.20 1021.08 1020.94 1020.80 1020.64 1020.47 1020.30 1020.12 1019.95 1019.78 1019.62 1019.46 1019.30 1019.12 1018.92 1018.68 1018.40 1018.08 1017.74
1021.81 1021.92 1022.02 1022.12 1022.22 1022.34 1022.46 1022.57 1022.66 1022.70 1022.70 1022.64 1022.53 1022.39 1022.23 1022.08 1021.95 1021.84 1021.76 1021.70 1021.65 1021.61 1021.56 1021.49 1021.42 1021.31 1021.19 1021.05 1020.87 1020.69 1020.48 1020.27 1020.06 1019.87 1019.70 1019.53 1019.38 1019.21 1019.02 1018.78 1018.50 1018.17 1017.81
1021.58 1021.76 1021.93 1022.10 1022.28 1022.46 1022.64 1022.80 1022.91 1022.98 1022.98 1022.92 1022.82 1022.68 1022.53 1022.37 1022.23 1022.11 1022.00 1021.92 1021.86 1021.81 1021.76 1021.70 1021.64 1021.56 1021.45 1021.30 1021.12 1020.91 1020.67 1020.42 1020.17 1019.94 1019.72 1019.54 1019.36 1019.19 1019.00 1018.77 1018.50 1018.18 1017.82
1021.44 1021.66 1021.90 1022.15 1022.41 1022.65 1022.88 1023.06 1023.20 1023.27 1023.28 1023.23 1023.14 1023.02 1022.87 1022.72 1022.57 1022.43 1022.31 1022.20 1022.11 1022.03 1021.97 1021.91 1021.85 1021.78 1021.68 1021.55 1021.37 1021.14 1020.87 1020.57 1020.27 1019.98 1019.72 1019.48 1019.28 1019.09 1018.89 1018.67 1018.41 1018.11 1017.77
1021.37 1021.65 1021.95 1022.26 1022.57 1022.86 1023.12 1023.32 1023.46 1023.54 1023.56 1023.52 1023.45 1023.34 1023.22 1023.08 1022.94 1022.80 1022.65 1022.51 1022.38 1022.27 1022.18 1022.10 1022.03 1021.97 1021.88 1021.75 1021.58 1021.34 1021.05 1020.72 1020.37 1020.03 1019.70 1019.42 1019.16 1018.94 1018.73 1018.50 1018.26 1017.97 1017.66
1021.36 1021.68 1022.02 1022.37 1022.71 1023.03 1023.30 1023.51 1023.66 1023.74 1023.76 1023.74 1023.70 1023.63 1023.55 1023.45 1023.32 1023.18 1023.02 1022.84 1022.67 1022.51 1022.37 1022.26 1022.17 1022.10 1022.01 1021.90 1021.73 1021.50 1021.21 1020.86 1020.47 1020.08 1019.71 1019.36 1019.06 1018.80 1018.56 1018.33 1018.08 1017.81 1017.50
1021.38 1021.71 1022.07 1022.44 1022.80 1023.13 1023.40 1023.60 1023.74 1023.82 1023.86 1023.88 1023.88 1023.86 1023.83 1023.78 1023.69 1023.56 1023.39 1023.18 1022.96 1022.74 1022.55 1022.38 1022.26 1022.16 1022.07 1021.96 1021.81 1021.60 1021.32 1020.97 1020.57 1020.16 1019.74 1019.36 1019.01 1018.71 1018.44 1018.18 1017.93 1017.66 1017.36
1021.36 1021.70 1022.07 1022.44 1022.80 1023.11 1023.37 1023.57 1023.71 1023.80 1023.87 1023.92 1023.98 1024.03 1024.07 1024.08 1024.04 1023.93 1023.76 1023.52 1023.25 1022.97 1022.71 1022.48 1022.30 1022.17 1022.06 1021.95 1021.82 1021.63 1021.37 1021.04 1020.66 1020.24 1019.81 1019.40 1019.02 1018.68 1018.38 1018.10 1017.82 1017.54 1017.23
1021.26 1021.61 1021.98 1022.35 1022.70 1023.00 1023.25 1023.44 1023.58 1023.69 1023.79 1023.89 1024.01 1024.14 1024.25 1024.33 1024.34 1024.26 1024.10 1023.85 1023.54 1023.20 1022.87 1022.57 1022.33 1022.14 1022.00 1021.88 1021.75 1021.58 1021.35 1021.05 1020.70 1020.30 1019.88 1019.46 1019.06 1018.69 1018.36 1018.05 1017.74 1017.44 1017.11
1021.08 1021.44 1021.81 1022.18 1022.53 1022.82 1023.06 1023.25 1023.40 1023.53 1023.66 1023.82 1024.00 1024.19 1024.38 1024.52 1024.59 1024.55 1024.40 1024.14 1023.81 1023.42 1023.02 1022.65 1022.34 1022.09 1021.91 1021.76 1021.62 1021.46 1021.26 1021.00 1020.68 1020.31 1019.91 1019.50 1019.09 1018.70 1018.34 1017.99 1017.66 1017.32 1016.98
1020.80 1021.18 1021.58 1021.96 1022.30 1022.60 1022.85 1023.04 1023.20 1023.35 1023.51 1023.71 1023.94 1024.19 1024.43 1024.63 1024.75 1024.75 1024.63 1024.38 1024.02 1023.60 1023.16 1022.73 1022.35 1022.04 1021.80 1021.61 1021.45 1021.29 1021.10 1020.87 1020.58 1020.25 1019.87 1019.47 1019.06 1018.65 1018.26 1017.88 1017.51 1017.14 1016.77
1020.43 1020.86 1021.29 1021.70 1022.06 1022.37 1022.63 1022.83 1023.00 1023.17 1023.36 1023.58 1023.84 1024.13 1024.41 1024.64 1024.80 1024.84 1024.74 1024.51 1024.16 1023.73 1023.26 1022.79 1022.36 1021.99 1021.70 1021.46 1021.26 1021.08 1020.89 1020.66 1020.39 1020.08 1019.72 1019.33 1018.91 1018.49 1018.07 1017.66 1017.25 1016.86 1016.47
1020.01 1020.49 1020.96 1021.40 1021.80 1022.13 1022.41 1022.62 1022.81 1022.99 1023.18 1023.41 1023.68 1023.97 1024.26 1024.52 1024.70 1024.77 1024.70 1024.51 1024.18 1023.77 1023.30 1022.81 1022.34 1021.93 1021.58 1021.29 1021.04 1020.82 1020.61 1020.38 1020.11 1019.80 1019.45 1019.06 1018.64 1018.20 1017.75 1017.30 1016.86 1016.44 1016.04
1019.54 1020.08 1020.60 1021.08 1021.51 1021.87 1022.17 1022.40 1022.60 1022.78 1022.97 1023.19 1023.44 1023.71 1023.99 1024.24 1024.43 1024.52 1024.49 1024.33 1024.05 1023.67 1023.22 1022.74 1022.27 1021.82 1021.43 1021.09 1020.79 1020.53 1020.28 1020.02 1019.74 1019.43 1019.07 1018.67 1018.24 1017.77 1017.30 1016.82 1016.35 1015.91 1015.49
1019.04 1019.63 1020.19 1020.72 1021.18 1021.57 1021.89 1022.14 1022.34 1022.52 1022.69 1022.88 1023.10 1023.34 1023.58 1023.81 1023.99 1024.08 1024.08 1023.96 1023.72 1023.39 1022.99 1022.54 1022.08 1021.63 1021.21 1020.83 1020.49 1020.18 1019.89 1019.60 1019.30 1018.96 1018.59 1018.18 1017.73 1017.25 1016.75 1016.25 1015.76 1015.30 1014.87
1018.51 1019.14 1019.74 1020.30 1020.79 1021.20 1021.54 1021.80 1022.01 1022.17 1022.33 1022.48 1022.66 1022.84 1023.04 1023.23 1023.38 1023.47 1023.47 1023.39 1023.21 1022.93 1022.58 1022.18 1021.74 1021.31 1020.88 1020.48 1020.10 1019.75 1019.43 1019.11 1018.78 1018.43 1018.05 1017.63 1017.17 1016.67 1016.16 1015.64 1015.13 1014.65 1014.21
1017.98 1018.63 1019.25 1019.82 1020.33 1020.76 1021.11 1021.39 1021.60 1021.76 1021.89 1022.01 1022.13 1022.27 1022.41 1022.54 1022.65 1022.72 1022.72 1022.66 1022.51 1022.28 1021.98 1021.63 1021.24 1020.82 1020.40 1019.99 1019.61 1019.24 1018.89 1018.55 1018.21 1017.85 1017.46 1017.04 1016.58 1016.08 1015.56 1015.02 1014.50 1014.01 1013.55
1017.45 1018.11 1018.73 1019.31 1019.83 1020.27 1020.63 1020.91 1021.12 1021.27 1021.38 1021.47 1021.56 1021.64 1021.71 1021.79 1021.85 1021.88 1021.86 1021.80 1021.67 1021.47 1021.22 1020.91 1020.55 1020.17 1019.77 1019.38 1018.99 1018.62 1018.26 1017.92 1017.58 1017.22 1016.85 1016.43 1015.98 1015.49 1014.97 1014.44 1013.91 1013.41 1012.94
1016.96 1017.61 1018.23 1018.80 1019.31 1019.74 1020.11 1020.39 1020.60 1020.75 1020.85 1020.91 1020.95 1020.98 1021.00 1021.01 1021.01 1020.99 1020.94 1020.86 1020.72 1020.54 1020.31 1020.04 1019.72 1019.37 1019.00 1018.62 1018.25 1017.90 1017.56 1017.23 1016.90 1016.57 1016.21 1015.82 1015.39 1014.92 1014.42 1013.89 1013.36 1012.85 1012.37
1016.54 1017.17 1017.76 1018.31 1018.81 1019.23 1019.58 1019.86 1020.06 1020.20 1020.29 1020.33 1020.34 1020.33 1020.29 1020.24 1020.18 1020.10 1020.00 1019.88 1019.73 1019.55 1019.32 1019.07 1018.77 1018.45 1018.12 1017.77 1017.43 1017.10 1016.78 1016.48 1016.18 1015.87 1015.55 1015.19 1014.79 1014.35 1013.87 1013.37 1012.85 1012.33 1011.84
1016.19 1016.80 1017.37 1017.89 1018.35 1018.75 1019.07 1019.33 1019.52 1019.64 1019.72 1019.74 1019.72 1019.67 1019.59 1019.48 1019.36 1019.23 1019.08 1018.91 1018.73 1018.53 1018.30 1018.05 1017.78 1017.49 1017.18 1016.86 1016.55 1016.25 1015.97 1015.69 1015.43 1015.16 1014.87 1014.55 1014.19 1013.78 1013.33 1012.85 1012.34 1011.83 1011.32
1015.93 1016.51 1017.04 1017.52 1017.94 1018.30 1018.58 1018.80 1018.97 1019.07 1019.12 1019.12 1019.08 1018.99 1018.87 1018.73 1018.56 1018.37 1018.18 1017.97 1017.76 1017.54 1017.31 1017.06 1016.80 1016.52 1016.24 1015.95 1015.67 1015.40 1015.14 1014.90 1014.66 1014.43 1014.17 1013.89 1013.57 1013.20 1012.79 1012.33 1011.84 1011.34 1010.82
1015.73 1016.28 1016.78 1017.21 1017.57 1017.87 1018.10 1018.27 1018.39 1018.46 1018.48 1018.46 1018.39 1018.28 1018.14 1017.96 1017.76 1017.54 1017.31 1017.08 1016.85 1016.62 1016.38 1016.13 1015.88 1015.62 1015.36 1015.09 1014.83 1014.58 1014.35 1014.13 1013.92 1013.71 1013.48 1013.23 1012.95 1012.62 1012.24 1011.82 1011.35 1010.86 1010.35
1015.57 1016.08 1016.53 1016.90 1017.20 1017.43 1017.60 1017.71 1017.78 1017.81 1017.80 1017.75 1017.66 1017.53 1017.37 1017.18 1016.97 1016.74 1016.50 1016.26 1016.02 1015.79 1015.55 1015.31 1015.07 1014.82 1014.57 1014.32 1014.07 1013.83 1013.61 1013.40 1013.21 1013.02 1012.82 1012.60 1012.35 1012.06 1011.72 1011.33 1010.90 1010.43 1009.93
1015.40 1015.87 1016.26 1016.57 1016.80 1016.96 1017.06 1017.12 1017.13 1017.11 1017.07 1016.99 1016.89 1016.76 1016.60 1016.41 1016.20 1015.98 1015.75 1015.52 1015.29 1015.07 1014.84 1014.62 1014.38 1014.14 1013.90 1013.65 1013.40 1013.17 1012.95 1012.75 1012.56 1012.39 1012.21 1012.02 1011.81 1011.55 1011.26 1010.91 1010.51 1010.06 1009.58
Thickness
5659 5656 5653 5650 5647 5644 5641 5639 5636 5634 5632 5631 5629 5627 5625 5623 5621 5619 5617 5615 5613 5612 5610 5609 5608 5606 5605 5604 5603 5602 5601 5600 5600 5600 5599 5599 5599 5600 5600 5601 5602 5603 5605
5656 5652 5648 5645 5642 5640 5637 5634 5631 5628 5626 5624 5622 5620 5618 5616 5614 5612 5610 5608 5606 5604 5602 5600 5599 5597 5596 5595 5594 5593 5592 5591 5590 5590 5589 5589 5589 5590 5590 5591 5592 5593 5594
5652 5648 5644 5641 5637 5634 5631 5628 5625 5622 5619 5617 5615 5613 5611 5609 5607 5605 5603 5601 5599 5596 5593 5591 5589 5588 5586 5585 5584 5583 5582 5581 5580 5580 5579 5579 5579 5579 5580 5581 5582 5583 5584
5648 5644 5639 5636 5632 5629 5625 5622 5618 5615 5612 5609 5607 5605 5604 5602 5600 5598 5595 5593 5590 5588 5585 5582 5580 5578 5576 5575 5574 5573 5572 5571 5570 5570 5569 5569 5569 5569 5570 5571 5571 5572 5574
5644 5639 5635 5631 5627 5623 5619 5615 5611 5607 5604 5601 5599 5598 5596 5594 5592 5590 5587 5584 5581 5579 5576 5573 5570 5568 5566 5564 5563 5562 5561 5561 5560 5560 5559 5559 5559 5559 5560 5560 5561 5562 5564
5639 5634 5629 5625 5621 5616 5612 5608 5604 5600 5597 5593 5592 5590 5587 5586 5583 5580 5578 5575 5572 5569 5566 5563 5560 5558 5556 5554 5553 5552 5551 5551 5550 5550 5549 5549 5549 5549 5549 5550 5551 5552 5553
5634 5629 5624 5619 5614 5610 5606 5602 5597 5593 5589 5585 5582 5579 5578 5576 5574 5571 5568 5565 5562 5559 5556 5553 5550 5548 5546 5544 5542 5541 5541 5541 5540 5540 5540 5539 5539 5539 5540 5540 5541 5542 5543
5629 5624 5619 5614 5609 5604 5598 5594 5590 5585 5580 5577 5572 5567 5563 5563 5563 5561 5557 5555 5552 5549 5546 5543 5540 5538 5536 5534 5532 5531 5530 5530 5530 5530 5530 5529 5529 5529 5529 5530 5530 5531 5532
5624 5619 5614 5609 5603 5598 5592 5588 5583 5578 5572 5568 5564 5559 5553 5550 5547 5549 5548 5545 5542 5538 5536 5533 5531 5528 5527 5525 5523 5521 5520 5519 5519 5519 5519 5519 5518 5518 5519 5519 5519 5520 5520
5618 5613 5608 5603 5597 5592 5586 5582 5577 5572 5566 5560 5555 5551 5547 5542 5537 5536 5536 5535 5532 5529 5526 5524 5521 5519 5517 5515 5513 5511 5510 5509 5508 5508 5508 5507 5507 5507 5507 5507 5507 5507 5508
5612 5607 5602 5597 5591 5586 5581 5575 5570 5565 5560 5554 5548 5543 5538 5532 5528 5523 5523 5523 5521 5519 5517 5514 5512 5509 5507 5505 5503 5501 5499 5498 5497 5496 5495 5495 5494 5494 5494 5495 5495 5495 5496
5605 5601 5596 5591 5586 5580 5575 5569 5564 5559 5554 5548 5543 5537 5531 5526 5520 5513 5511 5510 5510 5510 5508 5505 5503 5500 5497 5495 5492 5490 5488 5486 5485 5484 5483 5482 5482 5481 5481 5482 5482 5482 5483
5599 5594 5590 5585 5580 5574 5569 5564 5558 5552 5547 5542 5536 5531 5525 5521 5515 5508 5503 5500 5498 5499 5498 5496 5494 5490 5487 5484 5481 5478 5476 5474 5472 5471 5470 5469 5469 5468 5468 5468 5468 5469 5469
5596 5590 5585 5579 5574 5568 5563 5557 5551 5546 5540 5535 5529 5524 5518 5513 5507 5501 5495 5489 5486 5486 5485 5485 5483 5480 5476 5473 5469 5466 5464 5461 5460 5458 5457 5456 5455 5455 5454 5454 5454 5454 5454
5591 5585 5579 5573 5567 5562 5556 5550 5544 5539 5533 5527 5522 5516 5510 5505 5499 5494 5487 5481 5473 5472 5475 5474 5471 5469 5465 5461 5457 5454 5452 5448 5447 5445 5443 5442 5441 5440 5439 5438 5437 5437 5437
5585 5578 5572 5566 5560 5555 5549 5543 5537 5532 5525 5520 5514 5508 5502 5497 5491 5485 5479 5473 5466 5461 5461 5463 5459 5456 5452 5448 5444 5441 5438 5435 5432 5429 5428 5426 5424 5423 5421 5420 5419 5418 5418
5578 5572 5566 5560 5554 5548 5542 5536 5530 5524 5518 5512 5506 5500 5495 5489 5482 5476 5470 5464 5458 5451 5450 5455 5449 5445 5439 5435 5431 5427 5423 5419 5416 5412 5410 5408 5406 5404 5402 5401 5399 5398 5397
5572 5566 5559 5553 5547 5541 5535 5529 5522 5516 5510 5504 5498 5492 5486 5480 5474 5468 5461 5455 5449 5443 5439 5440 5439 5432 5426 5421 5417 5412 5408 5404 5400 5396 5393 5390 5388 5385 5383 5380 5378 5377 5375
5565 5559 5552 5546 5540 5534 5527 5522 5515 5509 5503 5497 5491 5484 5478 5471 5465 5459 5453 5447 5441 5436 5429 5425 5425 5419 5413 5407 5402 5398 5393 5388 5384 5379 5376 5372 5369 5366 5362 5360 5358 5356 5354
5558 5551 5545 5539 5533 5526 5520 5514 5507 5501 5495 5488 5482 5476 5470 5463 5457 5451 5444 5438 5431 5425 5418 5413 5410 5406 5399 5393 5385 5381 5378 5373 5368 5363 5358 5354 5350 5347 5343 5339 5337 5335 5333
5550 5543 5536 5530 5524 5518 5512 5505 5499 5493 5486 5479 5472 5466 5460 5454 5448 5442 5436 5429 5421 5413 5406 5400 5396 5392 5385 5376 5370 5365 5362 5359 5355 5347 5343 5338 5332 5327 5322 5318 5316 5314 5313
5540 5534 5527 5521 5515 5510 5505 5498 5491 5484 5477 5469 5463 5456 5450 5444 5438 5433 5426 5420 5412 5402 5394 5388 5383 5376 5371 5363 5357 5351 5346 5342 5340 5334 5325 5322 5314 5310 5305 5301 5298 5297 5297
5531 5525 5518 5512 5506 5501 5496 5490 5483 5475 5467 5460 5453 5446 5440 5434 5428 5421 5414 5408 5399 5391 5384 5376 5369 5363 5357 5351 5343 5338 5331 5325 5322 5317 5309 5308 5301 5296 5292 5288 5285 5283 5283
5522 5516 5510 5504 5497 5492 5486 5480 5473 5465 5457 5450 5443 5436 5429 5422 5415 5408 5402 5394 5386 5378 5370 5363 5356 5350 5343 5336 5329 5323 5318 5313 5309 5301 5293 5292 5289 5284 5281 5276 5273 5272 5272
5513 5507 5501 5494 5488 5482 5476 5470 5463 5454 5447 5439 5432 5425 5417 5410 5404 5398 5390 5382 5374 5367 5358 5351 5345 5338 5331 5324 5316 5309 5302 5296 5295 5290 5282 5277 5276 5273 5271 5267 5264 5262 5262
5504 5498 5491 5484 5478 5472 5466 5460 5453 5444 5437 5430 5422 5414 5406 5399 5393 5385 5376 5368 5361 5355 5347 5339 5332 5324 5317 5309 5302 5295 5287 5282 5279 5277 5272 5265 5263 5258 5260 5260 5255 5253 5253